Weather History for Plymouth, MA

Change the Weather History Date:

Monday, October 3, 2011

  Actual Average Record
Temperature  
Mean Temperature 61 °F -  
Max Temperature 69 °F 68 °F 85 °F (1968)
Min Temperature 53 °F 47 °F 30 °F (2003)
Degree Days  
Heating Degree Days 4    
Growing Degree Days 11 (Base 50)    
Moisture  
Dew Point 53 °F    
Average Humidity 82    
Maximum Humidity 94    
Minimum Humidity 42    
Precipitation  
Precipitation 0.08 in - - ()
Sea Level Pressure  
Sea Level Pressure 30.01 in    
Wind  
Wind Speed 3 mph (SE)    
Max Wind Speed 12 mph    
Max Gust Speed 17 mph    
Visibility 6 miles    
Events Fog , Rain    
Averages and records for this station are not official NWS values.
T = Trace of Precipitation, MM = Missing Value Source: NWS Daily Summary

Daily Weather History Graph

Daily Weather History Graph

Search for Another Location

Airport:

Trip Planner

Search our weather history database for the weather conditions in past years. The results will help you decide how hot, cold, wet, or windy it might be!

Date:

Astronomy

Oct. 03, 2011 Rise Set
Actual Time 6:41 AM EDT 6:21 PM EDT
Civil Twilight 6:13 AM EDT 6:49 PM EDT
Nautical Twilight 5:41 AM EDT 7:21 PM EDT
Astronomical Twilight 5:08 AM EDT 7:54 PM EDT
Moon 1:42 PM EDT (10/3) 11:16 PM EDT (10/3)
Length of Visible Light 12h 35m
Length of Day
11h 40m
Waxing Crescent, 45% of the Moon is Illuminated
Oct 3
Waxing Crescent
Oct 3
First Quarter
Oct 11
Full
Oct 19
Last Quarter
Oct 26
New

Hourly Weather History & Observations

Time (EDT) Temp. Dew Point Humidity Pressure Visibility Wind Dir Wind Speed Gust Speed Precip Events Conditions
1:52 AM 53.1 °F 50.0 °F 89% 29.94 in 10.0 mi Calm Calm - N/A   Scattered Clouds
2:35 AM 55.4 °F 51.8 °F 88% 29.93 in 10.0 mi Calm Calm - N/A   Mostly Cloudy
3:33 AM 57.2 °F 53.6 °F 88% 29.95 in 1.8 mi NNE 3.5 mph - N/A   Overcast
3:48 AM 57.2 °F 55.4 °F 94% 29.95 in 0.2 mi NE 5.8 mph - N/A Fog Fog
3:49 AM 57.9 °F 55.9 °F 93% 29.95 in 0.2 mi NE 4.6 mph - N/A Fog Fog
4:43 AM 57.2 °F 55.4 °F 94% 29.96 in 0.5 mi East 3.5 mph - N/A Fog Fog
4:52 AM 57.9 °F 55.9 °F 93% 29.96 in 0.2 mi East 3.5 mph - N/A Fog Fog
5:13 AM 57.2 °F 55.4 °F 94% 29.97 in 0.8 mi ESE 4.6 mph - 0.01 in   Mist
5:28 AM 57.2 °F 55.4 °F 94% 29.98 in 2.0 mi East 4.6 mph - 0.01 in   Overcast
5:36 AM 57.2 °F 55.4 °F 94% 29.98 in 5.0 mi East 3.5 mph - 0.01 in   Overcast
5:50 AM 57.2 °F 55.4 °F 94% 29.98 in 7.0 mi Calm Calm - 0.01 in   Scattered Clouds
5:52 AM 57.9 °F 55.9 °F 93% 29.98 in 7.0 mi Calm Calm - 0.01 in   Scattered Clouds
6:11 AM 55.4 °F 53.6 °F 94% 29.99 in 0.8 mi ESE 3.5 mph - N/A   Clear
6:34 AM 57.2 °F 55.4 °F 94% 30.00 in 2.0 mi ESE 4.6 mph - N/A   Mostly Cloudy
6:42 AM 57.2 °F 55.4 °F 94% 30.00 in 6.0 mi ESE 3.5 mph - N/A   Mostly Cloudy
6:52 AM 57.0 °F 55.0 °F 93% 30.01 in 7.0 mi SW 8.1 mph - N/A   Scattered Clouds
6:56 AM 55.4 °F 53.6 °F 94% 30.01 in 2.5 mi SSW 5.8 mph - N/A   Scattered Clouds
7:01 AM 55.4 °F 53.6 °F 94% 30.01 in 0.8 mi SW 6.9 mph - N/A   Mostly Cloudy
7:10 AM 55.4 °F 53.6 °F 94% 30.01 in 0.2 mi SW 3.5 mph - N/A Fog Fog
7:25 AM 55.4 °F 53.6 °F 94% 30.02 in 0.2 mi Calm Calm - N/A Fog Fog
7:52 AM 57.0 °F 55.0 °F 93% 30.03 in 1.0 mi Calm Calm - N/A   Overcast
8:09 AM 57.2 °F 55.4 °F 94% 30.04 in 10.0 mi SSW 3.5 mph - 0.00 in   Overcast
8:52 AM 61.0 °F 55.9 °F 83% 30.05 in 10.0 mi WSW 5.8 mph - 0.00 in   Partly Cloudy
9:52 AM 64.0 °F 53.1 °F 67% 30.07 in 10.0 mi WSW 8.1 mph - N/A   Overcast
10:52 AM 66.0 °F 48.0 °F 52% 30.07 in 10.0 mi SSW 5.8 mph - N/A   Partly Cloudy
11:52 AM 66.9 °F 44.1 °F 44% 30.06 in 10.0 mi SSW 11.5 mph 17.3 mph N/A   Partly Cloudy
12:52 PM 66.0 °F 46.0 °F 48% 30.07 in 10.0 mi WSW 9.2 mph - N/A   Overcast
2:52 PM 69.1 °F 45.0 °F 42% 30.04 in 10.0 mi Variable 4.6 mph - N/A   Clear
3:52 PM 66.0 °F 46.0 °F 48% 30.05 in 10.0 mi South 4.6 mph - N/A   Overcast
4:52 PM 64.0 °F 48.0 °F 56% 30.05 in 10.0 mi Calm Calm - N/A   Clear
5:52 PM 62.1 °F 48.9 °F 62% 30.06 in 10.0 mi SE 4.6 mph - N/A   Partly Cloudy
6:52 PM 61.0 °F 51.1 °F 70% 30.07 in 10.0 mi ESE 4.6 mph - 0.00 in Rain Light Rain
7:52 PM 57.9 °F 53.1 °F 84% 30.08 in 9.0 mi SE 3.5 mph - 0.02 in Rain Light Rain
8:52 PM 57.9 °F 54.0 °F 87% 30.06 in 8.0 mi Calm Calm - 0.03 in Rain Light Rain
9:52 PM 59.0 °F 53.1 °F 81% 30.05 in 10.0 mi East 3.5 mph - 0.00 in   Overcast
10:52 PM 57.9 °F 53.1 °F 84% 30.04 in 6.0 mi ENE 5.8 mph - 0.01 in Rain Rain
11:52 PM 57.0 °F 53.1 °F 87% 30.01 in 10.0 mi East 6.9 mph - 0.01 in   Overcast